TimeEST,TemperatureF,Dew PointF,Humidity,Sea Level PressureIn,VisibilityMPH,Wind Direction,Wind SpeedMPH,Gust SpeedMPH,PrecipitationIn,Events,Conditions,WindDirDegrees,DateUTC
12:53 AM,51.1,48.9,92,30.16,9.0,NNE,10.4,16.1,N/A,,Overcast,30,2012-11-20 05:53:00
1:39 AM,51.8,48.2,88,30.15,9.0,NNE,10.4,17.3,N/A,,Overcast,30,2012-11-20 06:39:00
1:53 AM,51.1,48.0,89,30.15,10.0,NNE,9.2,17.3,N/A,,Overcast,20,2012-11-20 06:53:00
2:53 AM,51.1,48.0,89,30.14,10.0,NE,12.7,21.9,N/A,,Overcast,40,2012-11-20 07:53:00
3:53 AM,51.1,46.9,86,30.14,10.0,NNE,11.5,20.7,N/A,,Overcast,30,2012-11-20 08:53:00
4:53 AM,50.0,46.9,89,30.15,10.0,NNE,11.5,18.4,N/A,,Overcast,30,2012-11-20 09:53:00
5:53 AM,48.9,46.0,90,30.15,10.0,North,12.7,-,N/A,,Overcast,10,2012-11-20 10:53:00
6:53 AM,48.9,45.0,86,30.17,10.0,NNE,13.8,19.6,N/A,,Overcast,30,2012-11-20 11:53:00
7:11 AM,48.2,44.6,87,30.16,10.0,NE,8.1,17.3,N/A,,Overcast,50,2012-11-20 12:11:00
7:26 AM,48.2,44.6,87,30.17,10.0,NE,10.4,16.1,N/A,,Overcast,40,2012-11-20 12:26:00
7:53 AM,48.9,44.1,83,30.17,10.0,NE,9.2,17.3,N/A,,Overcast,40,2012-11-20 12:53:00
8:53 AM,48.9,44.1,83,30.16,10.0,North,10.4,-,N/A,,Overcast,360,2012-11-20 13:53:00
9:53 AM,51.1,43.0,74,30.15,10.0,North,9.2,-,N/A,,Overcast,10,2012-11-20 14:53:00
10:38 AM,53.6,42.8,67,30.13,10.0,North,9.2,16.1,N/A,,Scattered Clouds,10,2012-11-20 15:38:00
10:53 AM,53.1,42.1,66,30.13,10.0,North,10.4,-,N/A,,Clear,10,2012-11-20 15:53:00
11:53 AM,53.1,42.1,66,30.11,10.0,North,11.5,-,N/A,,Clear,10,2012-11-20 16:53:00
12:53 PM,54.0,42.1,64,30.10,10.0,NNE,8.1,-,N/A,,Clear,30,2012-11-20 17:53:00
2:53 PM,51.1,43.0,74,30.09,10.0,NE,9.2,-,N/A,,Clear,40,2012-11-20 19:53:00
3:53 PM,48.9,42.1,77,30.09,10.0,NE,9.2,-,N/A,,Clear,40,2012-11-20 20:53:00
4:53 PM,48.0,42.1,80,30.09,10.0,NE,6.9,-,N/A,,Clear,40,2012-11-20 21:53:00
5:53 PM,48.0,42.1,80,30.09,10.0,NNE,6.9,-,N/A,,Clear,30,2012-11-20 22:53:00
6:53 PM,45.0,41.0,86,30.10,10.0,NNE,3.5,-,N/A,,Clear,20,2012-11-20 23:53:00
7:53 PM,39.9,37.9,93,30.12,10.0,NNW,3.5,-,N/A,,Clear,340,2012-11-21 00:53:00
8:53 PM,39.9,39.0,97,30.12,10.0,NNW,4.6,-,N/A,,Clear,340,2012-11-21 01:53:00
9:53 PM,42.1,39.9,92,30.12,10.0,WNW,4.6,-,N/A,,Clear,300,2012-11-21 02:53:00
10:53 PM,42.1,41.0,96,30.12,10.0,NW,3.5,-,N/A,,Clear,310,2012-11-21 03:53:00
11:53 PM,39.0,37.9,96,30.11,8.0,NW,4.6,-,N/A,,Clear,320,2012-11-21 04:53:00